Wind_Speed
33 31 29 28 27 26 25 23 23 23 22 20 19 17 15 13 12 13 13 12 11 11 10 9 9 9 9 9 10 10 9 8 7 6 6 6 6 7 7 7 7 8
34 33 31 30 29 28 26 25 24 23 22 21 19 17 15 14 14 13 13 13 13 12 11 10 10 10 10 10 10 10 10 10 9 8 7 6 6 6 6 7 8 8
34 34 33 32 31 29 28 26 26 25 23 21 20 18 17 16 16 15 14 13 12 12 12 12 11 11 11 10 11 10 10 11 10 9 8 7 6 6 6 7 7 8
33 34 34 33 32 31 30 29 28 27 25 23 21 19 19 18 18 17 16 13 12 11 11 11 12 13 13 12 11 11 10 11 10 10 10 8 7 7 7 7 7 8
32 33 34 34 33 32 32 31 30 28 27 25 22 21 19 19 19 18 17 15 13 11 10 10 11 13 14 14 13 12 11 11 11 11 10 9 8 8 8 8 8 10
32 32 33 34 34 34 34 33 32 31 29 27 25 23 21 20 20 19 18 16 14 13 12 11 11 11 13 14 15 15 14 12 11 11 11 10 9 9 9 9 9 11
32 32 32 33 33 35 35 35 34 33 31 30 28 27 25 23 22 21 20 18 17 16 14 13 12 11 12 13 15 16 16 15 13 12 12 11 10 10 10 10 10 11
33 32 32 32 33 34 35 35 36 35 33 32 32 30 29 27 25 23 22 21 20 19 18 17 15 14 13 14 15 15 16 16 16 15 14 13 13 13 12 12 12 12
36 34 33 33 33 34 34 35 35 35 35 35 34 33 32 31 29 26 25 24 23 22 22 21 20 18 16 16 16 16 16 17 18 18 17 15 14 14 13 14 14 14
39 38 36 36 35 34 34 33 34 35 36 36 36 36 35 34 32 30 28 27 26 26 25 24 23 22 21 19 18 17 18 18 18 19 19 18 17 16 15 15 15 15
42 40 40 38 37 36 34 33 33 34 35 36 36 37 37 36 35 33 32 31 29 28 27 26 26 25 24 23 21 20 19 19 19 20 20 20 20 18 17 16 16 16
43 42 41 40 38 37 35 34 33 33 33 34 36 37 37 37 37 36 36 34 32 31 30 29 28 27 27 26 24 23 22 21 21 21 21 22 21 20 20 19 18 18
44 43 42 40 39 37 36 35 34 33 32 32 33 35 36 37 38 39 38 38 36 34 33 31 30 29 29 28 26 25 24 23 23 23 23 23 23 22 21 20 20 19
43 43 42 41 39 38 37 36 35 34 33 32 32 33 35 36 38 39 39 39 39 38 36 34 33 32 31 29 28 27 26 25 24 24 24 24 24 24 24 23 21 20
43 42 42 41 40 40 38 37 36 35 34 33 32 32 32 34 36 37 38 39 39 39 38 37 36 34 32 30 29 27 26 26 25 25 25 25 25 25 26 25 24 23
43 42 42 42 41 40 39 38 37 36 35 33 32 31 31 32 33 35 36 37 38 38 37 37 36 35 32 30 29 27 26 26 26 26 26 26 26 26 26 26 26 25
43 42 42 42 41 40 39 38 37 36 35 34 33 31 30 30 31 33 34 35 36 36 36 36 36 34 32 30 29 27 26 26 27 27 27 27 27 27 26 26 26 26
43 43 42 42 41 41 40 39 38 37 36 36 34 33 31 31 31 32 33 33 34 35 35 36 35 33 31 30 28 27 27 27 27 27 28 28 28 28 27 26 26 26
42 42 42 42 41 40 40 39 39 39 38 37 36 34 33 33 32 32 32 32 33 34 34 34 34 32 30 29 28 27 27 27 27 28 28 29 29 29 28 27 27 27
40 40 40 40 39 39 39 40 39 39 39 38 37 36 36 35 34 33 33 32 32 33 33 34 33 32 30 30 29 28 27 27 28 28 28 29 29 29 28 28 28 28
38 38 38 37 36 36 36 38 39 39 39 38 38 37 37 36 35 34 33 33 33 33 33 34 33 32 31 30 29 28 28 28 28 28 29 29 29 29 29 28 28 28
36 36 37 36 36 35 35 34 34 34 36 38 39 39 39 37 37 36 34 33 33 33 34 35 34 32 32 31 30 29 28 28 28 29 29 30 30 29 29 28 28 29
35 35 35 35 36 38 37 32 25 23 26 30 35 40 42 41 38 36 34 33 33 33 34 35 35 33 32 31 30 29 29 29 29 29 30 30 30 29 29 29 29 29
35 36 35 35 35 36 38 36 28 21 18 19 24 31 38 43 42 39 35 33 32 32 33 35 35 34 33 32 31 30 30 30 30 30 30 30 30 29 29 29 29 30
33 35 36 36 35 34 35 38 36 28 20 17 18 21 26 33 38 41 38 35 32 32 32 33 34 34 33 33 32 31 31 31 30 31 31 30 30 30 30 30 30 30
30 32 33 35 36 35 33 34 35 33 28 22 20 20 21 26 32 38 39 36 33 32 31 31 32 33 33 33 32 32 32 32 31 32 32 31 30 30 30 31 31 31
Wind_Direction
226 225 226 226 227 229 227 224 220 216 216 216 216 218 219 216 215 219 222 222 223 224 222 224 226 228 228 224 225 225 226 229 226 226 235 240 242 241 243 250 252 255
226 226 227 227 227 229 229 227 224 221 218 218 220 223 226 225 223 223 225 225 226 228 227 226 227 230 232 230 230 232 237 240 235 234 239 242 248 249 249 253 255 258
227 227 227 227 227 227 229 228 228 227 223 222 223 226 229 230 230 229 228 228 229 229 230 231 233 234 236 236 236 239 243 245 244 244 248 250 251 251 252 254 254 253
228 228 227 228 227 228 229 229 230 231 231 229 228 228 231 233 234 232 229 229 228 228 230 233 237 239 240 242 244 246 247 247 246 246 251 255 253 251 250 250 249 244
231 230 229 228 228 229 230 230 231 232 235 236 234 233 233 233 233 230 228 228 230 232 234 236 240 243 245 247 249 250 251 249 245 243 247 251 252 252 250 246 244 240
233 233 232 231 230 230 231 231 232 233 235 238 238 238 237 234 232 230 230 233 237 241 244 246 248 249 251 253 253 253 253 252 247 242 241 243 246 249 250 247 242 238
235 234 234 234 234 233 234 234 234 235 236 238 239 240 240 239 235 234 237 241 244 248 253 257 258 258 258 260 260 258 256 254 251 246 241 240 240 243 246 247 247 242
236 236 236 236 236 236 236 236 237 237 238 238 239 240 242 242 241 240 241 245 248 251 255 259 262 264 264 263 265 264 261 256 254 252 248 244 241 241 243 246 248 246
236 237 237 237 237 238 238 239 240 241 241 241 241 242 243 244 244 243 244 246 249 252 256 259 262 266 266 266 266 266 265 261 257 255 253 250 248 246 246 247 247 247
237 238 238 238 239 239 239 240 241 242 244 244 245 245 245 246 246 247 247 249 250 252 255 259 262 265 268 268 267 267 266 264 260 257 255 253 252 252 251 251 251 250
238 239 239 239 240 241 241 241 242 242 244 246 247 248 248 249 249 249 250 251 252 253 256 258 261 264 267 268 268 267 267 265 262 259 257 255 254 253 253 253 253 253
239 240 240 241 242 242 243 244 244 244 244 245 247 249 250 251 251 251 252 253 254 255 257 258 260 263 265 266 267 266 267 266 263 260 256 255 254 253 253 252 252 252
239 241 242 243 244 244 245 245 246 246 247 247 247 248 250 251 252 253 254 254 255 256 257 258 260 262 263 264 264 264 265 265 264 260 256 253 253 253 253 252 251 251
241 242 243 244 245 246 246 246 247 247 248 249 249 249 249 250 252 253 254 255 256 256 258 259 260 261 262 262 262 261 262 262 261 259 255 252 251 251 252 252 251 251
242 243 244 244 245 246 247 247 248 248 248 249 250 250 250 250 251 252 254 254 255 256 257 258 259 260 260 259 259 259 259 259 258 256 253 251 250 250 250 251 251 251
242 243 244 244 245 246 248 248 249 249 249 249 250 251 252 251 251 252 253 253 254 254 255 256 256 257 257 256 257 257 257 257 256 254 252 250 249 249 250 250 251 251
242 243 244 245 246 247 248 249 250 250 250 250 251 252 252 252 252 252 252 252 253 253 253 253 254 254 254 254 254 254 254 254 253 253 251 249 249 249 249 250 251 252
242 243 244 245 247 248 249 250 251 251 251 251 252 252 252 252 252 252 252 251 252 252 252 252 252 251 251 251 251 250 251 251 251 252 251 250 249 249 248 248 249 250
242 243 245 246 248 249 251 252 251 252 252 253 253 254 254 253 253 252 252 252 252 252 252 251 250 249 248 248 247 246 246 248 249 250 250 250 249 249 249 247 247 248
241 243 244 247 249 251 252 252 253 254 255 256 256 256 255 255 254 254 253 252 252 252 252 252 250 248 247 246 245 244 243 245 248 250 250 250 249 249 249 248 247 247
240 242 243 245 247 248 251 252 254 255 257 258 259 259 258 257 256 256 255 254 253 253 253 252 249 246 246 245 244 244 243 245 247 249 250 250 249 248 248 248 247 247
239 240 241 243 243 244 244 246 250 255 258 260 260 260 260 260 258 256 256 255 254 253 253 251 247 244 244 244 243 243 244 246 247 249 250 250 249 248 247 247 247 248
239 240 240 241 242 243 241 239 241 252 259 263 264 262 260 260 259 258 257 256 255 254 252 249 245 242 242 242 242 243 244 246 247 248 249 250 249 248 247 247 247 247
238 239 240 241 242 245 245 241 239 242 248 254 264 266 263 260 259 259 259 258 256 254 252 250 246 242 241 241 241 242 244 245 246 248 250 250 249 248 247 246 246 246
235 238 241 243 244 247 249 247 245 246 247 243 244 252 260 261 260 258 258 259 258 256 255 253 249 244 241 240 239 239 242 244 246 248 250 250 249 248 247 246 245 244
231 235 240 243 245 247 248 248 248 249 251 249 244 243 252 261 261 258 257 259 259 258 257 255 252 248 243 240 238 238 240 242 244 247 248 248 248 248 247 246 245 244
Height
1569 1571 1574 1576 1578 1580 1582 1584 1586 1588 1589 1591 1592 1594 1595 1597 1598 1599 1600 1601 1601 1603 1604 1605 1606 1606 1607 1608 1609 1609 1610 1610 1611 1611 1612 1612 1613 1614 1615 1616 1616 1617
1567 1570 1572 1574 1576 1578 1580 1582 1584 1586 1588 1590 1592 1593 1595 1596 1597 1598 1599 1600 1601 1602 1603 1604 1605 1606 1607 1607 1608 1609 1609 1610 1610 1611 1611 1612 1612 1613 1614 1615 1615 1616
1565 1568 1570 1572 1574 1576 1578 1580 1583 1585 1587 1589 1590 1592 1594 1595 1597 1597 1598 1599 1600 1601 1602 1604 1605 1605 1606 1607 1607 1608 1609 1609 1610 1610 1611 1611 1612 1612 1613 1614 1614 1615
1563 1566 1567 1570 1572 1574 1577 1579 1581 1583 1585 1587 1589 1590 1592 1594 1595 1596 1597 1598 1599 1601 1602 1603 1604 1604 1605 1606 1606 1607 1608 1608 1609 1609 1610 1610 1611 1612 1612 1613 1613 1614
1561 1563 1565 1568 1570 1572 1574 1576 1578 1581 1583 1585 1587 1589 1590 1592 1594 1595 1596 1597 1598 1600 1601 1602 1603 1603 1604 1605 1605 1606 1607 1608 1608 1609 1609 1610 1610 1611 1611 1612 1613 1613
1559 1561 1563 1566 1568 1570 1572 1574 1576 1578 1580 1583 1585 1587 1589 1590 1592 1593 1595 1596 1597 1598 1599 1600 1601 1602 1603 1604 1604 1605 1606 1606 1607 1607 1608 1609 1609 1610 1611 1611 1612 1613
1556 1559 1561 1563 1565 1568 1569 1571 1574 1576 1578 1580 1583 1585 1587 1588 1590 1592 1593 1594 1596 1597 1598 1599 1600 1601 1602 1602 1603 1603 1604 1605 1606 1606 1607 1607 1608 1609 1609 1610 1611 1611
1554 1556 1558 1561 1563 1565 1567 1569 1571 1573 1575 1578 1580 1582 1584 1586 1588 1589 1591 1592 1593 1595 1596 1597 1598 1599 1600 1601 1601 1602 1603 1603 1604 1605 1605 1606 1606 1607 1608 1609 1609 1610
1552 1554 1556 1558 1560 1562 1564 1566 1568 1571 1573 1575 1577 1579 1581 1583 1585 1587 1588 1590 1591 1592 1594 1595 1596 1597 1599 1599 1600 1600 1601 1602 1602 1603 1603 1604 1604 1605 1606 1607 1607 1608
1549 1551 1553 1555 1557 1559 1561 1563 1566 1568 1570 1572 1574 1576 1578 1580 1582 1584 1585 1587 1588 1589 1591 1592 1594 1595 1596 1597 1598 1599 1599 1600 1600 1601 1601 1602 1602 1603 1604 1604 1605 1605
1545 1548 1550 1552 1554 1556 1558 1560 1563 1565 1567 1569 1571 1573 1575 1577 1579 1581 1582 1583 1585 1586 1588 1589 1591 1592 1593 1594 1595 1596 1597 1597 1598 1599 1599 1600 1600 1601 1601 1602 1602 1603
1542 1544 1546 1549 1551 1553 1555 1558 1560 1562 1564 1565 1568 1570 1571 1573 1575 1577 1578 1580 1582 1583 1584 1586 1587 1589 1590 1591 1593 1593 1594 1595 1595 1596 1597 1597 1598 1598 1599 1599 1600 1600
1538 1541 1543 1546 1548 1550 1553 1555 1557 1559 1560 1562 1564 1566 1568 1570 1571 1573 1575 1576 1578 1580 1581 1582 1584 1585 1586 1588 1589 1590 1591 1592 1592 1593 1594 1594 1595 1595 1596 1597 1597 1598
1535 1538 1540 1543 1545 1548 1550 1552 1554 1556 1557 1559 1561 1562 1564 1566 1567 1569 1571 1572 1574 1576 1577 1579 1580 1581 1583 1584 1585 1587 1588 1588 1589 1589 1590 1591 1592 1592 1593 1594 1595 1595
1532 1535 1537 1540 1542 1544 1547 1549 1551 1553 1554 1556 1557 1558 1560 1562 1564 1565 1567 1568 1570 1571 1573 1575 1576 1577 1579 1580 1582 1583 1584 1585 1585 1586 1587 1587 1588 1589 1590 1591 1592 1593
1529 1532 1534 1537 1539 1541 1543 1545 1547 1549 1551 1552 1554 1555 1557 1558 1560 1561 1562 1564 1565 1567 1569 1570 1571 1573 1574 1576 1578 1579 1580 1581 1581 1582 1583 1584 1584 1585 1586 1587 1589 1590
1526 1528 1531 1533 1535 1537 1539 1542 1544 1546 1547 1549 1550 1552 1553 1555 1556 1557 1558 1560 1561 1562 1564 1565 1567 1568 1570 1572 1574 1575 1576 1577 1577 1578 1579 1580 1581 1582 1583 1584 1585 1587
1523 1525 1527 1529 1531 1533 1536 1538 1540 1542 1544 1545 1547 1548 1550 1551 1552 1553 1554 1556 1557 1558 1559 1560 1562 1564 1566 1568 1569 1571 1572 1573 1573 1574 1575 1576 1578 1579 1580 1581 1582 1583
1519 1522 1523 1526 1528 1530 1532 1535 1536 1538 1540 1542 1543 1545 1546 1547 1548 1549 1550 1552 1553 1553 1555 1556 1557 1559 1561 1563 1565 1567 1568 1569 1570 1571 1571 1573 1574 1575 1577 1578 1579 1580
1516 1517 1519 1522 1524 1527 1529 1531 1532 1534 1536 1538 1540 1542 1543 1543 1544 1545 1546 1547 1548 1549 1550 1551 1553 1555 1557 1559 1560 1562 1564 1565 1566 1567 1568 1569 1570 1571 1573 1574 1575 1576
1512 1513 1515 1517 1520 1522 1524 1526 1528 1531 1533 1535 1537 1538 1539 1540 1541 1542 1542 1543 1544 1545 1546 1547 1548 1550 1552 1554 1556 1558 1560 1561 1562 1563 1564 1564 1566 1567 1569 1570 1571 1572
1508 1510 1512 1514 1516 1517 1518 1520 1523 1526 1529 1532 1534 1536 1536 1537 1538 1538 1538 1539 1540 1541 1541 1542 1543 1545 1547 1549 1552 1554 1555 1557 1558 1559 1559 1560 1562 1563 1565 1566 1567 1568
1504 1506 1508 1510 1512 1513 1513 1514 1516 1518 1522 1527 1531 1534 1534 1534 1534 1535 1535 1535 1536 1536 1536 1537 1538 1540 1543 1545 1547 1549 1551 1552 1553 1554 1555 1556 1557 1559 1561 1562 1563 1564
1502 1503 1505 1506 1508 1509 1511 1512 1513 1513 1515 1518 1523 1528 1531 1531 1532 1532 1532 1532 1531 1531 1532 1532 1533 1536 1538 1540 1543 1545 1546 1548 1549 1550 1551 1552 1554 1555 1557 1558 1559 1560
1498 1500 1501 1503 1504 1506 1508 1511 1512 1513 1513 1512 1514 1519 1523 1526 1527 1528 1528 1528 1527 1527 1527 1528 1529 1531 1533 1536 1538 1540 1542 1543 1545 1546 1546 1548 1549 1551 1552 1553 1554 1556
1495 1497 1498 1500 1501 1503 1504 1507 1509 1512 1512 1511 1510 1512 1516 1519 1521 1522 1523 1523 1523 1523 1523 1524 1525 1526 1529 1531 1533 1535 1537 1539 1540 1541 1542 1544 1545 1547 1548 1549 1550 1552